EW5549 Weather Reports


Display with metric or nautical units.
time (UTC)temp
F
wind
direction
speed
MPH
gust
MPH
rain 1hr
in
rain 24hr
in
rain mn
in
humidity
%
barometer
mb
20260904064003 58 73 0.0 0.0 0.00 0.00 0.00 73 1009.2
20260904063500 58 64 0.0 0.0 0.00 0.00 0.00 73 1009.2
20260904062954 58 53 0.0 0.0 0.00 0.00 0.00 73 1009.1
20260904062450 58 31 1.0 1.0 0.00 0.00 0.00 73 1009.2
20260904061946 58 38 0.0 1.0 0.00 0.00 0.00 71 1009.4
20260904061442 58 36 1.0 2.0 0.00 0.00 0.00 71 1009.2
20260904060938 59 42 0.0 0.0 0.00 0.00 0.00 70 1009.4
20260904060434 60 37 1.0 1.0 0.00 0.00 0.00 68 1009.4
20260904055929 60 0 2.0 2.0 0.00 0.00 0.00 64 1009.3
20260904055425 60 38 0.0 0.0 0.00 0.00 0.00 63 1009.2
20260904054921 60 39 0.0 0.0 0.00 0.00 0.00 62 1009.4
20260904054416 61 39 0.0 0.0 0.00 0.00 0.00 61 1009.4
20260904053912 61 356 1.0 1.0 0.00 0.00 0.00 60 1009.4
20260904053410 61 0 0.0 0.0 0.00 0.00 0.00 61 1009.6
20260904052907 62 359 1.0 1.0 0.00 0.00 0.00 60 1009.4
20260904052403 62 220 1.0 1.0 0.00 0.00 0.00 60 1009.7
20260904051859 62 20 0.0 0.0 0.00 0.00 0.00 58 1009.8
20260904051354 62 19 1.0 1.0 0.00 0.00 0.00 58 1009.8
20260904050849 62 264 3.0 3.0 0.00 0.00 0.00 59 1009.9
20260904050346 62 291 3.0 3.0 0.00 0.00 0.00 57 1009.7
20260904045845 62 312 2.0 2.0 0.00 0.00 0.00 60 1009.9
20260904045341 62 330 2.0 2.0 0.00 0.00 0.00 59 1009.7
20260904044840 62 250 5.0 5.0 0.00 0.00 0.00 59 1009.4
20260904044337 62 103 1.0 1.0 0.00 0.00 0.00 58 1009.4
20260904043833 62 93 0.0 0.0 0.00 0.00 0.00 59 1009.8
20260904043330 62 93 3.0 3.0 0.00 0.00 0.00 58 1009.9
20260904042829 62 83 1.0 2.0 0.00 0.00 0.00 58 1009.8
20260904042326 62 83 1.0 1.0 0.00 0.00 0.00 57 1009.8
20260904041820 63 94 3.0 3.0 0.00 0.00 0.00 56 1010.1
20260904041316 64 83 3.0 3.0 0.00 0.00 0.00 53 1010.3
20260904040812 64 57 3.0 3.0 0.00 0.00 0.00 54 1010.3
20260904040307 65 46 1.0 1.0 0.00 0.00 0.00 52 1010.6
20260904035803 65 40 2.0 2.0 0.00 0.00 0.00 51 1010.3
20260904035259 65 72 1.0 1.0 0.00 0.00 0.00 53 1010.5
20260904034757 67 53 1.0 2.0 0.00 0.00 0.00 47 1010.2
20260904034253 67 330 3.0 3.0 0.00 0.00 0.00 47 1010.5
20260904033749 67 346 3.0 3.0 0.00 0.00 0.00 46 1010.6
20260904033246 67 313 7.0 8.0 0.00 0.00 0.00 45 1010.5
20260904032742 68 253 10.0 11.0 0.00 0.00 0.00 44 1010.6
20260904032240 67 302 5.0 7.0 0.00 0.00 0.00 47 1010.7
20260904031729 67 271 5.0 7.0 0.00 0.00 0.00 47 1010.8
20260904031225 67 309 3.0 3.0 0.00 0.00 0.00 45 1010.8
20260904030720 67 292 3.0 3.0 0.00 0.00 0.00 46 1010.6
20260904030216 67 255 4.0 5.0 0.00 0.00 0.00 45 1010.9
20260904025712 67 301 4.0 5.0 0.00 0.00 0.00 44 1010.7
20260904025207 68 292 3.0 3.0 0.00 0.00 0.00 44 1010.3
20260904024702 68 273 3.0 3.0 0.00 0.00 0.00 44 1010.5
20260904024157 68 332 2.0 2.0 0.00 0.00 0.00 43 1010.3
20260904023654 69 291 5.0 5.0 0.00 0.00 0.00 41 1010.5
20260904023149 70 256 5.0 6.0 0.00 0.00 0.00 38 1010.2
20260904022643 71 264 5.0 6.0 0.00 0.00 0.00 37 1010.3
20260904022140 70 268 6.0 7.0 0.00 0.00 0.00 36 1010.0
20260904021636 70 287 4.0 5.0 0.00 0.00 0.00 39 1010.2
20260904021131 69 260 4.0 5.0 0.00 0.00 0.00 39 1010.2
20260904020627 69 119 1.0 2.0 0.00 0.00 0.00 43 1010.1
20260904020120 69 65 0.0 0.0 0.00 0.00 0.00 40 1010.0
20260904015615 70 65 0.0 0.0 0.00 0.00 0.00 40 1010.0
20260904015114 71 4 1.0 1.0 0.00 0.00 0.00 38 1009.9
20260904014608 72 2 1.0 2.0 0.00 0.00 0.00 38 1010.0
20260904014104 72 309 2.0 2.0 0.00 0.00 0.00 38 1009.9
20260904013601 73 111 0.0 0.0 0.00 0.00 0.00 35 1009.9
20260904013056 74 145 2.0 2.0 0.00 0.00 0.00 34 1009.9
20260904012556 74 162 2.0 2.0 0.00 0.00 0.00 34 1009.9
20260904012050 75 171 1.0 2.0 0.00 0.00 0.00 33 1009.8
20260904011549 74 235 4.0 5.0 0.00 0.00 0.00 33 1009.6
20260904011045 75 227 5.0 6.0 0.00 0.00 0.00 33 1009.6
20260904010541 74 230 7.0 9.0 0.00 0.00 0.00 33 1009.7
20260904010037 74 191 3.0 3.0 0.00 0.00 0.00 34 1009.6
20260904005531 74 213 4.0 5.0 0.00 0.00 0.00 33 1009.6
20260904005027 74 219 4.0 5.0 0.00 0.00 0.00 33 1009.6
20260904004522 74 197 4.0 5.0 0.00 0.00 0.00 33 1009.4
20260904004017 75 202 6.0 7.0 0.00 0.00 0.00 32 1009.6
20260904003513 75 218 6.0 8.0 0.00 0.00 0.00 32 1009.6
20260904003008 75 189 4.0 6.0 0.00 0.00 0.00 33 1009.7
20260904002504 75 222 4.0 6.0 0.00 0.00 0.00 33 1009.3
20260904002002 75 234 8.0 10.0 0.00 0.00 0.00 32 1009.6
20260904001459 75 179 5.0 6.0 0.00 0.00 0.00 32 1009.3
20260904000953 75 187 2.0 2.0 0.00 0.00 0.00 32 1009.4
20260904000455 75 185 2.0 2.0 0.00 0.00 0.00 32 1009.4
20260903235948 75 136 0.0 1.0 0.00 0.00 0.00 33 1009.6
20260903235444 76 136 1.0 1.0 0.00 0.00 0.00 32 1009.7
20260903234944 76 114 0.0 0.0 0.00 0.00 0.00 32 1009.4
20260903234439 75 120 1.0 1.0 0.00 0.00 0.00 31 1009.4
20260903233936 76 141 2.0 2.0 0.00 0.00 0.00 30 1009.7
20260903233431 77 159 2.0 2.0 0.00 0.00 0.00 30 1009.8
20260903232926 76 208 4.0 5.0 0.00 0.00 0.00 29 1009.7
20260903232421 76 149 3.0 5.0 0.00 0.00 0.00 30 1009.4
20260903231921 77 156 8.0 9.0 0.00 0.00 0.00 29 1009.8
20260903231416 77 154 5.0 7.0 0.00 0.00 0.00 31 1009.7
20260903230910 77 178 5.0 7.0 0.00 0.00 0.00 30 1009.8
20260903230406 76 207 11.0 13.0 0.00 0.00 0.00 30 1009.7
20260903225903 75 235 7.0 9.0 0.00 0.00 0.00 32 1009.7
20260903225358 75 358 3.0 5.0 0.00 0.00 0.00 31 1009.7
20260903224854 76 288 4.0 5.0 0.00 0.00 0.00 31 1009.9
20260903224350 76 311 5.0 7.0 0.00 0.00 0.00 30 1009.9
20260903223845 75 293 6.0 7.0 0.00 0.00 0.00 29 1009.7
20260903223344 76 298 6.0 7.0 0.00 0.00 0.00 30 1009.8
20260903222839 76 276 3.0 3.0 0.00 0.00 0.00 29 1009.9
20260903222338 76 262 6.0 6.0 0.00 0.00 0.00 29 1009.9
20260903221833 75 271 7.0 7.0 0.00 0.00 0.00 30 1009.7
20260903221332 76 245 5.0 5.0 0.00 0.00 0.00 29 1009.8
20260903220830 77 302 7.0 8.0 0.00 0.00 0.00 29 1009.8
20260903220325 77 248 7.0 8.0 0.00 0.00 0.00 29 1010.0
20260903215823 75 285 5.0 6.0 0.00 0.00 0.00 30 1009.9
20260903215320 78 256 5.0 7.0 0.00 0.00 0.00 28 1010.1
20260903214818 77 259 7.0 8.0 0.00 0.00 0.00 29 1010.1
20260903214314 76 237 10.0 10.0 0.00 0.00 0.00 28 1010.0
20260903213808 75 226 7.0 8.0 0.00 0.00 0.00 31 1010.0
20260903213303 75 279 9.0 10.0 0.00 0.00 0.00 30 1010.0
20260903212753 75 230 9.0 9.0 0.00 0.00 0.00 29 1010.1
20260903212249 75 257 7.0 9.0 0.00 0.00 0.00 32 1010.1
20260903211743 75 257 10.0 11.0 0.00 0.00 0.00 29 1010.0
20260903211240 75 237 6.0 9.0 0.00 0.00 0.00 31 1010.0
20260903210736 75 277 7.0 7.0 0.00 0.00 0.00 30 1009.9
20260903210230 75 290 5.0 6.0 0.00 0.00 0.00 29 1009.8
20260903205725 75 286 7.0 9.0 0.00 0.00 0.00 30 1010.1
20260903205224 75 308 3.0 3.0 0.00 0.00 0.00 29 1010.0
20260903204719 75 272 3.0 5.0 0.00 0.00 0.00 32 1009.9
20260903204216 75 11 2.0 2.0 0.00 0.00 0.00 29 1010.0
20260903203711 76 305 9.0 10.0 0.00 0.00 0.00 29 1010.0
20260903203206 75 300 7.0 8.0 0.00 0.00 0.00 31 1010.1
20260903202700 74 251 4.0 5.0 0.00 0.00 0.00 32 1010.1
20260903202156 74 298 7.0 10.0 0.00 0.00 0.00 31 1010.2
20260903201655 76 286 12.0 13.0 0.00 0.00 0.00 29 1010.0
20260903201150 76 193 8.0 11.0 0.00 0.00 0.00 28 1010.1
20260903200644 75 251 12.0 13.0 0.00 0.00 0.00 29 1010.1
20260903200140 76 254 9.0 9.0 0.00 0.00 0.00 30 1010.2
20260903195636 76 213 6.0 8.0 0.00 0.00 0.00 29 1010.1
20260903195132 77 270 7.0 8.0 0.00 0.00 0.00 29 1010.2
20260903194626 76 112 2.0 3.0 0.00 0.00 0.00 29 1010.5
20260903194121 75 234 5.0 6.0 0.00 0.00 0.00 31 1010.3
20260903193617 75 191 8.0 9.0 0.00 0.00 0.00 30 1010.5
20260903193112 75 183 7.0 8.0 0.00 0.00 0.00 29 1010.6
20260903192608 74 255 5.0 7.0 0.00 0.00 0.00 32 1010.5
20260903192103 73 246 5.0 7.0 0.00 0.00 0.00 33 1010.5
20260903191600 73 290 8.0 9.0 0.00 0.00 0.00 32 1010.9
20260903191054 74 300 6.0 7.0 0.00 0.00 0.00 32 1010.7
20260903190554 74 25 1.0 2.0 0.00 0.00 0.00 34 1010.6
20260903190053 73 295 4.0 6.0 0.00 0.00 0.00 32 1010.8
20260903185549 73 2 3.0 3.0 0.00 0.00 0.00 35 1010.7
20260903185044 73 58 0.0 0.0 0.00 0.00 0.00 35 1010.7
20260903184540 74 81 4.0 6.0 0.00 0.00 0.00 37 1010.6
20260903184035 72 122 3.0 3.0 0.00 0.00 0.00 35 1010.8
20260903183534 72 101 4.0 7.0 0.00 0.00 0.00 35 1011.0
20260903183030 72 80 1.0 1.0 0.00 0.00 0.00 39 1011.1
20260903182528 71 73 6.0 8.0 0.00 0.00 0.00 38 1011.1
20260903182024 71 81 6.0 7.0 0.00 0.00 0.00 40 1011.3
20260903181518 71 78 1.0 2.0 0.00 0.00 0.00 39 1011.2
20260903181017 70 59 1.0 2.0 0.00 0.00 0.00 43 1011.5
20260903180513 71 35 3.0 3.0 0.00 0.00 0.00 43 1011.5
20260903180013 71 282 3.0 3.0 0.00 0.00 0.00 42 1011.3
20260903175511 70 59 1.0 2.0 0.00 0.00 0.00 44 1011.5
20260903175011 69 300 1.0 1.0 0.00 0.00 0.00 43 1011.7
20260903174506 69 8 3.0 3.0 0.00 0.00 0.00 43 1011.8
20260903174000 69 306 5.0 6.0 0.00 0.00 0.00 40 1011.7
20260903173455 68 275 4.0 5.0 0.00 0.00 0.00 43 1011.8
20260903172951 68 36 2.0 2.0 0.00 0.00 0.00 44 1011.7
20260903172446 68 113 2.0 2.0 0.00 0.00 0.00 47 1011.6
20260903171942 68 198 1.0 2.0 0.00 0.00 0.00 44 1011.7
20260903171437 69 73 2.0 2.0 0.00 0.00 0.00 43 1011.6
20260903170936 68 118 2.0 2.0 0.00 0.00 0.00 48 1011.8
20260903170431 69 85 3.0 3.0 0.00 0.00 0.00 48 1011.8
20260903165929 69 97 5.0 5.0 0.00 0.00 0.00 46 1011.7
20260903165419 68 83 4.0 5.0 0.00 0.00 0.00 48 1011.7
20260903164918 68 31 1.0 2.0 0.00 0.00 0.00 45 1011.7
20260903164413 66 52 0.0 0.0 0.00 0.00 0.00 47 1011.8
20260903163908 66 56 3.0 3.0 0.00 0.00 0.00 51 1011.7
20260903163404 65 73 1.0 2.0 0.00 0.00 0.00 60 1011.9
20260903162900 63 38 0.0 0.0 0.00 0.00 0.00 66 1011.9
20260903162356 63 353 3.0 5.0 0.00 0.00 0.00 66 1012.0
20260903161852 64 357 2.0 2.0 0.00 0.00 0.00 64 1012.2
20260903161347 63 55 1.0 1.0 0.00 0.00 0.00 64 1012.2
20260903160843 63 24 2.0 2.0 0.00 0.00 0.00 62 1012.2
20260903160341 63 16 3.0 3.0 0.00 0.00 0.00 59 1012.4
20260903155840 61 72 1.0 1.0 0.00 0.00 0.00 61 1012.4
20260903155335 62 71 0.0 1.0 0.00 0.00 0.00 62 1012.2
20260903154831 61 86 1.0 2.0 0.00 0.00 0.00 62 1012.4
20260903154327 60 57 2.0 2.0 0.00 0.00 0.00 65 1012.4
20260903153822 59 90 4.0 5.0 0.00 0.00 0.00 66 1012.2
20260903153318 59 70 4.0 5.0 0.00 0.00 0.00 67 1012.5
20260903152814 57 74 3.0 5.0 0.00 0.00 0.00 71 1012.4
20260903152309 57 52 1.0 2.0 0.00 0.00 0.00 69 1012.5
20260903151804 57 74 0.0 0.0 0.00 0.00 0.00 71 1012.6
20260903151300 55 72 2.0 2.0 0.00 0.00 0.00 71 1012.7
20260903150800 56 98 2.0 2.0 0.00 0.00 0.00 71 1013.0
20260903150254 56 65 0.0 0.0 0.00 0.00 0.00 72 1012.5
20260903145750 54 68 0.0 0.0 0.00 0.00 0.00 75 1012.9
20260903145245 52 72 0.0 1.0 0.00 0.00 0.00 78 1012.9
20260903144743 52 72 1.0 1.0 0.00 0.00 0.00 79 1012.8
20260903144239 52 97 2.0 2.0 0.00 0.00 0.00 80 1012.7
20260903143735 51 78 3.0 3.0 0.00 0.00 0.00 84 1012.6
20260903143231 51 105 5.0 6.0 0.00 0.00 0.00 85 1012.7
20260903142726 50 97 1.0 2.0 0.00 0.00 0.00 86 1012.7
20260903142222 50 102 2.0 2.0 0.00 0.00 0.00 87 1012.9
20260903141718 49 109 3.0 3.0 0.00 0.00 0.00 88 1013.0
20260903141213 49 88 1.0 1.0 0.00 0.00 0.00 87 1012.8
20260903140708 48 109 1.0 1.0 0.00 0.00 0.00 89 1012.8
20260903140203 48 91 1.0 1.0 0.00 0.00 0.00 89 1012.6
20260903135659 48 72 3.0 3.0 0.00 0.00 0.00 89 1012.7
20260903135154 48 76 4.0 6.0 0.00 0.00 0.00 89 1012.6
20260903134653 47 80 2.0 3.0 0.00 0.00 0.00 90 1012.9
20260903134149 46 230 0.0 0.0 0.00 0.00 0.00 90 1013.0
20260903133647 46 259 3.0 3.0 0.00 0.00 0.00 91 1013.1
20260903133143 46 259 3.0 3.0 0.00 0.00 0.00 91 1013.0
20260903132642 46 17 0.0 1.0 0.00 0.00 0.00 92 1012.8
20260903132137 46 344 2.0 2.0 0.00 0.00 0.00 92 1012.5
20260903131632 46 294 3.0 3.0 0.00 0.00 0.00 92 1012.7
20260903131131 46 350 0.0 0.0 0.00 0.00 0.00 93 1012.6
20260903130626 46 92 0.0 0.0 0.00 0.00 0.00 93 1012.4
20260903130120 46 10 0.0 0.0 0.00 0.00 0.00 93 1012.5
20260903125618 46 9 0.0 0.0 0.00 0.00 0.00 93 1012.5
20260903125114 45 24 0.0 0.0 0.00 0.00 0.00 93 1012.2
20260903124614 45 24 0.0 0.0 0.00 0.00 0.00 93 1012.0
20260903124113 45 10 1.0 1.0 0.00 0.00 0.00 93 1012.0
20260903123608 45 319 3.0 3.0 0.00 0.00 0.00 93 1012.1
20260903123106 45 50 0.0 0.0 0.00 0.00 0.00 93 1011.7
20260903122601 45 19 0.0 0.0 0.00 0.00 0.00 93 1011.9
20260903122101 45 19 0.0 0.0 0.00 0.00 0.00 92 1011.8
20260903121555 45 19 0.0 0.0 0.00 0.00 0.00 92 1011.7
20260903121051 45 41 0.0 0.0 0.00 0.00 0.00 91 1011.6
20260903120549 45 40 0.0 0.0 0.00 0.00 0.00 90 1011.5
20260903120044 44 59 0.0 0.0 0.00 0.00 0.00 90 1011.6
20260903115543 45 62 0.0 0.0 0.00 0.00 0.00 90 1011.7
20260903115038 44 63 0.0 0.0 0.00 0.00 0.00 90 1011.6
20260903114533 45 70 0.0 0.0 0.00 0.00 0.00 90 1011.6
20260903114029 45 71 0.0 0.0 0.00 0.00 0.00 89 1011.6
20260903113524 45 71 1.0 1.0 0.00 0.00 0.00 88 1011.6
20260903113020 45 65 1.0 1.0 0.00 0.00 0.00 88 1011.6
20260903112515 45 70 0.0 0.0 0.00 0.00 0.00 87 1011.5
20260903112015 46 106 1.0 2.0 0.00 0.00 0.00 86 1011.6
20260903111509 45 133 2.0 2.0 0.00 0.00 0.00 84 1011.1
20260903111005 45 93 0.0 1.0 0.00 0.00 0.00 86 1011.2
20260903110501 45 93 0.0 0.0 0.00 0.00 0.00 86 1011.3
20260903110000 44 110 2.0 2.0 0.00 0.00 0.00 87 1011.2
20260903105455 44 104 2.0 2.0 0.00 0.00 0.00 88 1011.2
20260903104950 44 93 1.0 1.0 0.00 0.00 0.00 88 1011.1
20260903104450 44 93 0.0 0.0 0.00 0.00 0.00 88 1011.3
20260903103946 44 100 2.0 2.0 0.00 0.00 0.00 89 1011.0
20260903103442 43 93 1.0 1.0 0.00 0.00 0.00 91 1011.1
20260903102937 43 82 0.0 0.0 0.00 0.00 0.00 90 1011.0
20260903102433 43 82 1.0 1.0 0.00 0.00 0.00 90 1011.0
20260903101931 42 82 2.0 2.0 0.00 0.00 0.00 91 1010.9
20260903101427 42 79 1.0 2.0 0.00 0.00 0.00 91 1010.9
20260903100922 42 75 0.0 0.0 0.00 0.00 0.00 92 1010.8
20260903100417 43 74 0.0 0.0 0.00 0.00 0.00 92 1011.0
20260903095914 43 74 0.0 0.0 0.00 0.00 0.00 92 1011.0
20260903095409 43 74 0.0 0.0 0.00 0.00 0.00 92 1010.8
20260903094904 43 74 0.0 0.0 0.00 0.00 0.00 91 1010.9
20260903094403 43 75 0.0 1.0 0.00 0.00 0.00 91 1010.9
20260903093900 44 86 2.0 2.0 0.00 0.00 0.00 90 1010.6
20260903093354 44 79 1.0 1.0 0.00 0.00 0.00 91 1010.7
20260903092850 44 71 0.0 0.0 0.00 0.00 0.00 91 1010.6
20260903092344 45 71 0.0 0.0 0.00 0.00 0.00 90 1010.5
20260903091843 45 72 0.0 0.0 0.00 0.00 0.00 90 1010.7
20260903091342 45 78 0.0 0.0 0.00 0.00 0.00 89 1010.7
20260903090837 45 91 0.0 0.0 0.00 0.00 0.00 89 1010.6
20260903090332 45 85 0.0 0.0 0.00 0.00 0.00 89 1010.6
20260903085830 45 86 0.0 0.0 0.00 0.00 0.00 89 1010.7
20260903085330 45 101 1.0 1.0 0.00 0.00 0.00 89 1010.8
20260903084829 45 93 0.0 0.0 0.00 0.00 0.00 88 1010.8
20260903084328 46 86 0.0 0.0 0.00 0.00 0.00 88 1010.5
20260903083824 46 27 1.0 1.0 0.00 0.00 0.00 87 1010.6
20260903083319 46 20 0.0 0.0 0.00 0.00 0.00 87 1010.9
20260903082818 46 9 1.0 1.0 0.00 0.00 0.00 86 1010.5
20260903082313 46 19 0.0 0.0 0.00 0.00 0.00 85 1010.7
20260903081809 47 86 0.0 0.0 0.00 0.00 0.00 84 1010.7
20260903081304 47 358 1.0 1.0 0.00 0.00 0.00 84 1010.7
20260903080801 47 348 0.0 0.0 0.00 0.00 0.00 84 1010.7
20260903080258 46 81 0.0 0.0 0.00 0.00 0.00 82 1010.5
20260903075757 46 55 0.0 0.0 0.00 0.00 0.00 84 1010.7
20260903075252 47 101 2.0 2.0 0.00 0.00 0.00 83 1010.5
20260903074751 48 98 3.0 3.0 0.00 0.00 0.00 80 1010.6
20260903074246 47 83 2.0 2.0 0.00 0.00 0.00 80 1010.3
20260903073742 48 83 2.0 2.0 0.00 0.00 0.00 78 1010.3
20260903073237 49 90 0.0 0.0 0.00 0.00 0.00 78 1010.2
20260903072733 49 91 0.0 0.0 0.00 0.00 0.00 78 1010.5
20260903072229 48 83 0.0 0.0 0.00 0.00 0.00 80 1010.3
20260903071726 48 83 1.0 2.0 0.00 0.00 0.00 80 1010.3
20260903071221 47 83 1.0 1.0 0.00 0.00 0.00 83 1010.5
20260903070720 47 69 1.0 2.0 0.00 0.00 0.00 81 1010.5
20260903070216 49 83 1.0 1.0 0.00 0.00 0.00 78 1010.6
20260903065711 49 83 0.0 0.0 0.00 0.00 0.00 77 1010.6
20260903065205 49 83 0.0 0.0 0.00 0.00 0.00 76 1010.7
20260903064704 48 83 1.0 1.0 0.00 0.00 0.00 78 1010.3